Printer-friendly version

IAU Minor Planet Center

Minor Planet Center

MPEC 2009-F15 : 2009 FK

The following Minor Planet Electronic Circular may be linked-to from your own Web pages, but must not otherwise be redistributed electronically.


Read MPEC 2009-F14 Read MPEC 2009-F16


M.P.E.C. 2009-F15                                Issued 2009 Mar. 17, 17:01 UT

     The Minor Planet Electronic Circulars contain information on unusual
         minor planets and routine data on comets.  They are published
   on behalf of Commission 20 of the International Astronomical Union by the
          Minor Planet Center, Smithsonian Astrophysical Observatory,
                          Cambridge, MA 02138, U.S.A.

             Prepared using the Tamkin Foundation Computer Network

                              MPC@CFA.HARVARD.EDU
          URL http://www.cfa.harvard.edu/iau/mpc.html  ISSN 1523-6714

                                    2009 FK

Observations:
     K09F00K* C2009 03 17.29255 10 38 49.88 +24 20 37.2          19.0 V EF015703
     K09F00K  C2009 03 17.29839 10 38 55.17 +24 20 03.0          19.9 V EF015703
     K09F00K  C2009 03 17.30425 10 39 00.36 +24 19 28.4          19.5 V EF015703
     K09F00K  C2009 03 17.30991 10 39 05.25 +24 18 57.6          19.8 V EF015703
     K09F00K  C2009 03 17.33708 10 39 29.77 +24 16 12.0          19.5 V EF015703
     K09F00K  C2009 03 17.33829 10 39 30.84 +24 16 02.6          20.0 V EF015703
     K09F00K  C2009 03 17.33951 10 39 31.96 +24 15 57.0          19.7 V EF015703
     K09F00K  C2009 03 17.37220 10 40 01.34 +24 11 51.0          18.9 R EF015H01
     K09F00K  C2009 03 17.37519 10 40 06.03 +24 12 04.8          19.7 R EF015854
     K09F00K  C2009 03 17.37675 10 40 05.89 +24 11 19.7          18.9 R EF015H01
     K09F00K  C2009 03 17.37893 10 40 09.69 +24 11 38.5          20.1 R EF015854
     K09F00K  C2009 03 17.38058 10 40 09.71 +24 10 53.2          19.0 R EF015H01
     K09F00K  C2009 03 17.38268 10 40 13.41 +24 11 12.7          19.7 R EF015854
     K09F00K  C2009 03 17.38467 10 40 13.86 +24 10 24.7          18.8 R EF015H01
     K09F00K 5C2009 03 17.43600 10 41 13.76 +24 04 48.5          19.0 R EF015673
     K09F00K 5C2009 03 17.43924 10 41 17.28 +24 04 24.8                 EF015673
     K09F00K 5C2009 03 17.44329 10 41 22.05 +24 03 52.2                 EF015673
     K09F00K 5C2009 03 17.45081 10 41 30.40 +24 02 56.4                 EF015673

Observer details:
673 Table Mountain Observatory, Wrightwood.  Observer J. Young.  0.61-m f/16
    Cassegrain + CCD.
703 Catalina Sky Survey.  Observer R. E. Hill.  Measurers E. C. Beshore,
    A. Boattini, G. J. Garradd, A. R. Gibbs, A. D. Grauer, R. E. Hill,
    R. A. Kowalski, S. M. Larson, R. H. McNaught.  0.68-m Schmidt + CCD.
854 Sabino Canyon Observatory, Tucson.  Observer J. E. McGaha.  0.36-m f/10.0
    Schmidt-Cassegrain + CCD.
H01 Magdalena Ridge Observatory, Socorro.  Observer W. H. Ryan.  2.4-m f/8.9
    reflector + CCD.

Orbital elements:
2009 FK                                                  Earth MOID = 0.0002 AU
Epoch 2009 June 18.0 TT = JDT 2455000.5                 MPC
M  37.41659              (2000.0)            P               Q
n   0.57327758     Peri.  208.21013     -0.87989055     +0.47517640
a   1.4351350      Node     0.16085     -0.42747022     -0.79144125
e   0.3258187      Incl.    2.46758     -0.20751345     -0.38448426
P   1.72           H   28.2           G   0.15           U   7
Residuals in seconds of arc
090317 703  1.5-  0.4+    090317 703  0.9-  0.9+    090317 854  0.6-  0.4+
090317 703  1.1+  0.6-    090317 H01  0.7+  0.8+    090317 H01  0.4+  0.8+
090317 703  1.7+  1.5-    090317 854  0.2-  1.1+    090317 673  2.0-  0.4+
090317 703  0.1+  0.8+    090317 H01  0.8+  0.8+    090317 673  2.2-  0.8+
090317 703  0.2-  0.6+    090317 854  0.5-  0.4+    090317 673  2.1+  1.6-
090317 703  0.8-  1.2-    090317 H01  0.4+  0.8+    090317 673  1.8+  0.7-

Ephemeris:
2009 FK                  a,e,i = 1.44, 0.33, 2                   q = 0.9675
Date    TT    R. A. (2000) Decl.     Delta      r     Elong.  Phase     V
2009 03 10    09 56.08   +26 59.2    0.0375   1.026   149.5    29.5    22.4
2009 03 12    10 00.19   +26 49.5    0.0302   1.019   148.5    30.6    22.0
2009 03 14    10 07.21   +26 28.1    0.0229   1.014   148.1    31.3    21.4
2009 03 16    10 20.89   +25 38.5    0.0157   1.008   149.0    30.5    20.5
2009 03 18    10 56.57   +22 58.4    0.00864  1.003   154.5    25.3    19.1
2009 03 20    14 13.46   -01 25.4    0.00289  0.998   146.0    33.9    16.9
2009 03 22    20 00.58   -30 12.2    0.00692  0.994    65.6   114.0    21.8
2009 03 24    20 56.75   -29 31.6    0.0139   0.989    55.9   123.4    24.0
2009 03 26    21 15.12   -28 57.8    0.0210   0.985    54.0   125.0    25.0
2009 03 28    21 24.35   -28 36.0    0.0282   0.982    53.9   124.7    25.6
2009 03 30    21 30.07   -28 19.9    0.0353   0.979    54.6   123.7    26.0

Sonia Keys                   (C) Copyright 2009 MPC           M.P.E.C. 2009-F15

Read MPEC 2009-F14 Read MPEC 2009-F16


Our Web policy. Index to the CBAT/MPC/ICQ pages.


Valid HTML 4.01!